Location: Ariel
(45.9570°N, 122.5700°W)
Time: 20:25:37
(UTC-07:00)

Tiros 1 - Pass Details

Date: 28 July 2019
Orbit: 631 x 664 km, 48.4° (Epoch: 24 August)

Event Time Altitude Azimuth Distance (km) Brightness Sun altitude
Rises 15:03:09 0° 288° (WNW) 2,996 10.8 55.2°
Reaches altitude 10° 15:05:30 10° 288° (WNW) 2,084 10.2 54.9°
Maximum altitude 15:10:19 85° 200° (SSW) 670 8.5 54.2°
Drops below altitude 10° 15:15:08 10° 113° (ESE) 2,076 9.7 53.6°
Sets 15:17:28 0° 112° (ESE) 2,984 10.4 53.3°
